Location: Newark
(50.6672°N, 3.2681°E)
Time: 11:23:29
(UTC+00:00)

Envisat - Visible Passes

Search period start: 20 September 2020 00:00
Search period end: 30 September 2020 00:00
Orbit: 764 x 766 km, 98.1° (Epoch: 20 September)

Date Brightness Start Highest point End Pass type
(mag) Time Alt. Az. Time Alt. Az. Time Alt. Az.
20 Sep 5.9 04:55:28 10° NE 04:59:31 23° E 05:03:32 10° SE visible
21 Sep 6.5 04:20:32 10° ENE 04:22:12 11° E 04:23:53 10° ESE visible
22 Sep 6.2 18:21:04 10° SW 18:24:22 17° W 18:27:42 10° NW visible
23 Sep 6.0 04:44:26 10° NE 04:48:02 19° E 04:51:36 10° SE visible
24 Sep 6.8 18:49:43 10° W 18:50:13 10° W 18:50:43 10° WNW visible
25 Sep 6.0 18:09:04 10° SW 18:12:53 21° W 18:16:42 10° NW visible
26 Sep 6.2 04:33:31 10° NE 04:36:31 16° E 04:39:31 10° ESE visible
27 Sep 6.5 18:36:24 10° WSW 18:38:40 13° W 18:40:57 10° WNW visible
28 Sep 5.7 04:58:05 10° NE 05:02:17 25° E 05:06:26 10° SSE visible
28 Sep 5.7 17:57:12 10° SSW 18:01:24 26° W 18:05:37 10° NW visible
29 Sep 6.4 04:22:51 10° ENE 04:24:59 12° E 04:27:08 10° ESE visible
